Regional Weather Roundup
Issued by NWS

Home | Current Version | Previous Version | Graphics & Text | Print | Product List | Glossary On
Versions: 1 2 3 4 5 6 7 8 9 10 11 12 13 14 15 16 17 18 19 20 21 22 23 24 25 26 27 28 29 30 31 32 33 34 35 36 37 38 39 40 41 42 43 44 45 46 47 48 49 50
000
ASUS43 KDTX 190310
RWRMI
MICHIGAN HOURLY REGIONAL WEATHER ROUNDUP
NATIONAL WEATHER SERVICE DETROIT/PONTIAC MI
1100 PM EDT FRI APR 18 2014

NOTE: "FAIR" INDICATES FEW OR NO CLOUDS BELOW 12,000 FEET WITH NO
SIGNIFICANT WEATHER AND/OR OBSTRUCTION TO VISIBILITY.

MIZ047>049-052>055-059>063-066>070-074>076-081>083-190400-
SOUTHEAST LOWER MICHIGAN

CITY           SKY/WX    TMP DP  RH WIND       PRES   REMARKS
ADRIAN         CLEAR     48  42  80 N3        30.31R
ALMA           CLEAR     38  25  58 N10       30.37R
ANN ARBOR      CLEAR     49  40  71 SE6       30.30R
BAD AXE        CLEAR     32  28  86 NE3       30.38R
DETROIT CITY   PTCLDY    42  30  62 NE14G22   30.34R
DETROIT        MOCLDY    49  36  61 NE9       30.32R
FLINT          CLEAR     42  33  70 NE15      30.36R
GROSSE ILE     PTCLDY    46  37  71 NE13      30.30R
HILLSDALE      CLEAR     47  32  55 NW6       30.30R
HOWELL         CLEAR     46  33  60 N5        30.32R

CITY           SKY/WX    TMP DP  RH WIND       PRES   REMARKS
JACKSON        CLEAR     45  33  63 NW3       30.30S
LAMBERTVILLE   CLEAR     46  43  87 CALM      30.31R
LANSING        CLEAR     45  32  60 NE16G25   30.34R
LAPEER         NOT AVBL
MASON          CLEAR     47  34  60 NE14G20   30.32R
MONROE         PTCLDY    46  39  76 NE6       30.29R
MT. CLEMENS    CLOUDY    37  31  78 N15       30.35R
PONTIAC        MOCLDY    41  31  67 NE8       30.33R
PORT HOPE        N/A     37  31  78 N7        30.36R
PORT HURON     PTCLDY    34  30  86 N8        30.37R
TRI CITIES     CLEAR     37  32  82 N7        30.38R
YPSILANTI      MOCLDY    48  38  68 NE7       30.31R
$$
MIZ043>046-050>051-056>058-064>065-071>073-077>080-190400-
SOUTHWEST LOWER MICHIGAN

CITY           SKY/WX    TMP DP  RH WIND       PRES   REMARKS
BATTLE CREEK   CLEAR     43  29  57 N6        30.32S
BENTON HARBOR  CLEAR     35  26  69 CALM      30.34R
BIG RAPIDS     CLEAR     35  25  67 N6        30.37S
COLDWATER      CLEAR     42  30  62 NW3       30.31S
HOLLAND        CLEAR     42  29  59 N7        30.35R
GRAND RAPIDS   CLEAR     44  27  51 N9        30.34R
KALAMAZOO      CLEAR     39  26  59 N7        30.32S
MARSHALL       CLEAR     41  31  68 NW3       30.31S
MUSKEGON       CLEAR     40  25  55 N12       30.37S
$$
MIZ016>042-190400-
NORTHERN LOWER MICHIGAN

CITY           SKY/WX    TMP DP  RH WIND       PRES   REMARKS
ALPENA         CLEAR     33  26  75 NW7       30.40R
BEAVER ISLAND  CLEAR     31  27  86 NW5       30.43F
BELLAIRE       CLEAR     29  27  90 CALM      30.42F
CADILLAC       CLEAR     30  25  83 N3        30.37S
CHARLEVOIX     CLEAR     32  28  86 NW5       30.46S
FRANKFORT      CLEAR     30  26  83 CALM      30.42S
GAYLORD        CLEAR     31  26  82 NW3       30.38F
GRAYLING       CLEAR     29  23  76 CALM      30.39S
HARBOR SPRINGS PTCLDY    34  28  80 CALM      30.42S
HOUGHTON LAKE  CLEAR     31  24  75 N7        30.38S
MANISTEE       CLEAR     36  25  64 NE7       30.42S
OSCODA         CLEAR     34  25  70 NW5       30.37S
PELLSTON       MOCLDY    32  26  78 NW7       30.43R
TRAVERSE CITY  CLEAR     34  27  75 N6        30.41F
$$
MIZ007>008-015-190400-
EASTERN UPPER MICHIGAN

CITY           SKY/WX    TMP DP  RH WIND       PRES   REMARKS
KINROSS        CLOUDY    32  30  93 NW9       30.40S
MACKINAC ISLAN CLEAR     31  28  88 NW6       30.41F
NEWBERRY       CLEAR     29  27  90 NW5       30.41F
S. S. MARIE    CLOUDY    32  30  92 NW7       30.41R
$$
MIZ004>006-011>014-085-190400-
CENTRAL UPPER MICHIGAN

CITY           SKY/WX    TMP DP  RH WIND       PRES   REMARKS
MANISTIQUE     CLEAR     28  26  89 N6        30.42F
ESCANABA       CLEAR     32  25  74 NE7       30.43S
MENOMINEE      CLEAR     30  25  80 CALM      30.42R
SAWYER-GWINN   CLEAR     28  25  91 CALM      30.41S
$$
MIZ001>003-009>011-084-190400-
WESTERN UPPER MICHIGAN

CITY           SKY/WX    TMP DP  RH WIND       PRES   REMARKS
IRON MOUNTAIN  CLEAR     26  21  81 CALM      30.39R
HOUGHTON       CLEAR     28  23  81 E5        30.39F
COPPER HARBOR    N/A     28  24  85 CALM      30.42S
IRONWOOD       CLEAR     34  21  60 E7        30.31F
$$

ABBREVIATIONS USED IN REMARKS
   TC - TEMPERATURE IN CELSIUS
  WCI - WIND CHILL INDEX
   HX - HEAT INDEX
  VSB - VISIBILITY




USA.gov is the U.S. government's official web portal to all federal, state and local government web resources and services.